Location: Bethera
(33.2010°N, 79.7880°W)
Time: 22:30:44
(UTC-04:00)

Amateur Radio Satellites - All Passes

Search period start: 27 March 2017 22:00
Search period end: 28 March 2017 22:00
Location: Bethera, 33.2010°N, 79.7880°W

Satellite Date Start Highest point End Downlink Frequencies (MHz)
Time Altitude Azimuth
ISS 27 Mar 22:01:16 22:02:38 12° 331° (NNW) 22:04:00 437.550
AO-73 27 Mar 22:08:48 22:12:48 30° 263° (W) 22:16:45 145.935
STRAND 1 27 Mar 22:14:27 22:16:31 12° 296° (WNW) 22:18:35 437.568
DELFI C3 27 Mar 22:22:43 22:26:36 85° 255° (WSW) 22:30:32 145.870
PRISM 27 Mar 22:25:59 22:29:48 34° 99° (E) 22:33:35 437.425
BEESAT 3 27 Mar 22:28:37 22:32:30 73° 115° (ESE) 22:36:26 437.485
AO-85 27 Mar 22:37:45 22:38:41 11° 311° (NW) 22:39:36 145.980
BEESAT 2 27 Mar 22:47:27 22:51:08 40° 114° (ESE) 22:54:53 435.950
RS-15 27 Mar 23:19:37 23:31:42 71° 247° (WSW) 23:43:09 29.354- 29.394
TIGRISAT 27 Mar 23:28:26 23:32:49 89° 90° (E) 23:37:06 435.000
FO-29 27 Mar 23:32:04 23:37:40 51° 99° (E) 23:42:47 435.910
LO-87 27 Mar 23:32:37 23:36:10 70° 77° (ENE) 23:39:46 145.935 - 145.965
UNISAT 6 27 Mar 23:39:06 23:43:26 62° 284° (WNW) 23:47:39 437.425
SO-50 27 Mar 23:47:31 23:51:30 30° 55° (NE) 23:55:28 436.795
EO-79 27 Mar 23:54:42 23:55:26 10° 92° (E) 23:56:10 145.935-145.965
ESTCUBE 1 28 Mar 00:02:14 00:06:41 79° 77° (ENE) 00:11:09 437.505/2401.250
PRISM 28 Mar 00:02:17 00:04:45 15° 292° (WNW) 00:07:12 437.425
SPROUT 28 Mar 00:07:19 00:10:27 20° 70° (ENE) 00:13:35 437.525
AIST 2D 28 Mar 00:13:04 00:16:16 34° 98° (E) 00:19:27 435.315
POLYITAN 1 28 Mar 00:20:50 00:24:14 23° 96° (E) 00:27:37 437.675
50 SAT 28 Mar 00:22:46 00:25:04 17° 71° (ENE) 00:27:22 437.505
QB50P2 28 Mar 00:25:17 00:29:00 29° 97° (E) 00:32:39 145.880/145.840
BEESAT 2 28 Mar 00:26:52 00:29:04 14° 309° (NW) 00:31:18 435.950
DUCHIFAT 1 28 Mar 00:35:16 00:38:55 28° 97° (E) 00:42:32 145.980
DX 1 28 Mar 00:41:52 00:45:17 23° 70° (ENE) 00:48:44 434.975-435.025
BUGSAT 1 28 Mar 00:47:42 00:48:56 11° 93° (E) 00:50:08 437.445
VELOX 1 28 Mar 01:08:33 01:12:54 61° 259° (W) 01:17:17 145.980
UKube-1 28 Mar 01:18:14 01:22:18 42° 73° (ENE) 01:26:23 .
FO-29 28 Mar 01:18:37 01:22:09 17° 297° (WNW) 01:25:30 435.910
NANOSAT C BR1 28 Mar 01:21:43 01:25:53 63° 284° (WNW) 01:30:01 145.865
EO-79 28 Mar 01:27:20 01:31:24 48° 286° (WNW) 01:35:26 145.935-145.965
SO-50 28 Mar 01:28:19 01:31:45 22° 249° (WSW) 01:35:10 436.795
RS-15 28 Mar 01:38:26 01:41:47 12° 265° (W) 01:45:06 29.354- 29.394
Oscar 19 28 Mar 01:41:21 01:44:32 16° 94° (E) 01:47:43 437.125/150
SPROUT 28 Mar 01:42:28 01:46:08 27° 263° (W) 01:49:50 437.525
50 SAT 28 Mar 01:55:26 01:57:56 19° 264° (W) 02:00:27 437.505
POLYITAN 1 28 Mar 01:56:37 01:59:52 22° 290° (WNW) 02:03:06 437.675
QB50P2 28 Mar 02:01:39 02:04:31 18° 291° (WNW) 02:07:23 145.880/145.840
Gurwin Techsat 1B 28 Mar 02:07:33 02:10:54 17° 94° (E) 02:14:13 435.225
DUCHIFAT 1 28 Mar 02:11:28 02:14:20 18° 291° (WNW) 02:17:12 145.980
ITUPSAT 1 28 Mar 02:16:47 02:18:59 13° 65° (ENE) 02:21:12 437.325
DX 1 28 Mar 02:17:48 02:21:19 24° 263° (W) 02:24:52 434.975-435.025
BUGSAT 1 28 Mar 02:20:31 02:24:28 43° 286° (WNW) 02:28:21 437.445
O/OREOS (USA 219) 28 Mar 02:24:32 02:27:19 16° 60° (ENE) 02:30:04 437.305
Tancredo 1 28 Mar 02:47:50 02:49:34 14° 31° (NNE) 02:51:18 437.200
ISS 28 Mar 02:54:36 02:56:33 15° 32° (NNE) 02:58:29 437.550
UKube-1 28 Mar 02:56:37 02:58:28 13° 266° (W) 03:00:21 .
Oscar 19 28 Mar 03:19:04 03:24:01 47° 288° (WNW) 03:28:58 437.125/150
ITAMSAT 1 28 Mar 03:31:38 03:34:50 16° 94° (E) 03:38:03 435.822/435.867
BEESAT 28 Mar 03:34:10 03:38:57 84° 255° (WSW) 03:43:45 436.000
MOZHAYETS 4 28 Mar 03:37:44 03:41:59 38° 73° (ENE) 03:46:14
Gurwin Techsat 1B 28 Mar 03:45:55 03:51:01 48° 288° (WNW) 03:56:06 435.225
ITUPSAT 1 28 Mar 03:51:37 03:56:18 55° 259° (W) 04:01:00 437.325
AO-7 28 Mar 03:57:29 04:04:33 30° 98° (E) 04:11:33 .
O/OREOS (USA 219) 28 Mar 04:02:33 04:06:54 42° 255° (WSW) 04:11:13 437.305
Tancredo 1 28 Mar 04:22:47 04:25:55 55° 227° (SW) 04:29:04 437.200
ISS 28 Mar 04:30:01 04:33:15 54° 227° (SW) 04:36:28 437.550
CUBESAT XI-V 28 Mar 04:34:50 04:38:31 24° 70° (ENE) 04:42:12 437.345
KKS-1 28 Mar 04:43:59 04:48:11 42° 73° (ENE) 04:52:25 437.445
ITAMSAT 1 28 Mar 05:09:32 05:14:29 47° 288° (WNW) 05:19:25 435.822/435.867
STARS 28 Mar 05:15:35 05:19:44 41° 73° (ENE) 05:23:53 437.465
MOZHAYETS 4 28 Mar 05:16:26 05:19:14 16° 266° (W) 05:22:02
AO-85 28 Mar 05:29:36 05:32:08 16° 53° (NE) 05:34:42 145.980
AO-7 28 Mar 05:49:33 05:57:26 51° 293° (WNW) 06:05:20 .
CUBESAT XI-V 28 Mar 06:11:58 06:15:45 25° 264° (W) 06:19:33 437.345
KKS-1 28 Mar 06:22:39 06:24:53 14° 266° (W) 06:27:07 437.445
LilacSat-2 28 Mar 06:24:03 06:25:09 11° 93° (E) 06:26:15 437.200
M-CUBED/EXP-1 PRIME 28 Mar 06:37:57 06:41:30 57° 71° (ENE) 06:45:24 437.505
NUDT-PHONESAT 28 Mar 06:39:18 06:41:03 13° 94° (E) 06:42:48 437.300
XW-2D 28 Mar 06:44:58 06:47:53 21° 96° (E) 06:50:47 145.860 - 145.880
KAITUO 1B 28 Mar 06:48:04 06:50:37 18° 95° (E) 06:53:09 145.475/437.950
XW-2B 28 Mar 06:50:47 06:53:54 24° 97° (E) 06:56:59 145.730 - 145.750
BEESAT 3 28 Mar 06:50:59 06:52:44 12° 50° (NE) 06:54:29 437.485
NO-84 28 Mar 06:53:19 06:56:05 38° 314° (NW) 06:58:46 435.350 FM
STARS 28 Mar 06:53:52 06:56:11 14° 266° (W) 06:58:30 437.465
XW-2C 28 Mar 07:00:46 07:04:12 34° 98° (E) 07:07:37 145.795 - 145.815
AO-85 28 Mar 07:08:57 07:12:33 34° 246° (WSW) 07:16:19 145.980
CUTE-I 28 Mar 07:11:18 07:16:22 43° 99° (E) 07:21:24 437.470
DOVE 4 28 Mar 07:13:20 07:18:39 77° 103° (ESE) 07:23:47 437.250
JUGNU 28 Mar 07:18:37 07:22:03 16° 168° (SSE) 07:25:31 437.505
YUBILEINY 28 Mar 07:29:05 07:36:57 39° 87° (E) 07:44:47 435.215
STRAND 1 28 Mar 07:44:23 07:49:26 60° 74° (ENE) 07:54:30 437.568
XW-2F 28 Mar 07:51:22 07:54:55 44° 285° (WNW) 07:58:27 145.980 - 146.000
LilacSat-2 28 Mar 07:56:05 07:59:31 35° 286° (WNW) 08:02:57 437.200
XW-2A 28 Mar 07:56:10 07:58:34 18° 96° (E) 08:00:56 145.665 - 145.685
HO-68 28 Mar 07:56:48 08:02:44 28° 97° (E) 08:08:39 435.675
CUTE 1.7 + AOD 2 28 Mar 07:57:50 08:00:46 18° 95° (E) 08:03:43 437.475
NUDT-PHONESAT 28 Mar 08:11:49 08:15:00 28° 287° (WNW) 08:18:10 437.300
XW-2D 28 Mar 08:19:17 08:21:54 18° 289° (WNW) 08:24:31 145.860 - 145.880
KAITUO 1B 28 Mar 08:21:41 08:24:32 21° 288° (WNW) 08:27:22 145.475/437.950
XW-2B 28 Mar 08:25:30 08:27:51 16° 290° (WNW) 08:30:13 145.730 - 145.750
BEESAT 3 28 Mar 08:26:43 08:30:36 50° 246° (WSW) 08:34:26 437.485
XW-2C 28 Mar 08:36:37 08:38:03 12° 291° (WNW) 08:39:27 145.795 - 145.815
BEESAT 2 28 Mar 08:46:13 08:50:17 87° 243° (WSW) 08:54:17 435.950
CUTE-I 28 Mar 08:52:16 08:56:03 20° 293° (WNW) 08:59:48 437.470
DOVE 4 28 Mar 08:53:59 08:55:32 11° 296° (WNW) 08:57:05 437.250
UWE-3 28 Mar 08:57:18 09:00:40 23° 95° (E) 09:03:58 435.000/436.395/437.385
AAUSAT CUBESAT 2 28 Mar 09:01:20 09:05:02 31° 97° (E) 09:08:44 437.432
JUGNU 28 Mar 09:06:02 09:10:24 22° 178° (S) 09:14:48 437.505
PRISM 28 Mar 09:12:35 09:14:45 14° 68° (ENE) 09:16:55 437.425
SEEDS 28 Mar 09:22:05 09:26:13 60° 284° (WNW) 09:30:22 437.485
Oscar 11 28 Mar 09:23:07 09:26:18 20° 95° (E) 09:29:27 .
SRMSAT 28 Mar 09:25:28 09:28:26 14° 165° (SSE) 09:31:26 437.500
YUBILEINY 28 Mar 09:25:39 09:33:36 38° 284° (WNW) 09:41:34 435.215
STRAND 1 28 Mar 09:26:46 09:28:55 12° 267° (W) 09:31:04 437.568
XW-2A 28 Mar 09:28:57 09:31:10 17° 289° (WNW) 09:33:22 145.665 - 145.685
CUTE 1.7 + AOD 2 28 Mar 09:32:58 09:36:34 28° 288° (WNW) 09:40:11 437.475
PCSat 28 Mar 09:33:06 09:38:26 63° 113° (ESE) 09:43:48 145.827
ZACube-1 28 Mar 09:33:28 09:37:18 34° 98° (E) 09:41:03 437.345
CUBEBUG 2 28 Mar 09:34:12 09:38:31 68° 284° (WNW) 09:42:41 437.445
FO-29 28 Mar 09:39:34 09:44:43 20° 64° (ENE) 09:49:40 435.910
HO-68 28 Mar 09:43:47 09:50:33 47° 291° (WNW) 09:57:19 435.675
AO-73 28 Mar 10:00:29 10:04:39 70° 101° (E) 10:08:45 145.935
DELFI C3 28 Mar 10:04:59 10:07:32 16° 95° (E) 10:10:04 145.870
TIGRISAT 28 Mar 10:22:15 10:26:43 46° 74° (ENE) 10:31:11 435.000
UNISAT 6 28 Mar 10:32:48 10:37:28 67° 76° (ENE) 10:42:06 437.425
UWE-3 28 Mar 10:33:41 10:36:59 22° 290° (WNW) 10:40:13 435.000/436.395/437.385
AAUSAT CUBESAT 2 28 Mar 10:37:35 10:40:13 17° 291° (WNW) 10:42:51 437.432
PRISM 28 Mar 10:45:57 10:49:41 35° 262° (W) 10:53:26 437.425
JUGNU 28 Mar 10:54:43 10:58:47 19° 188° (S) 11:02:53 437.505
Oscar 11 28 Mar 10:58:44 11:02:21 27° 288° (WNW) 11:05:58 .
ZACube-1 28 Mar 11:10:52 11:13:14 15° 292° (WNW) 11:15:34 437.345
POLYITAN 1 28 Mar 11:11:18 11:12:36 11° 66° (ENE) 11:13:54 437.675
SRMSAT 28 Mar 11:12:33 11:16:58 21° 175° (S) 11:21:23 437.500
QB50P2 28 Mar 11:15:04 11:17:15 14° 67° (ENE) 11:19:26 145.880/145.840
PCSat 28 Mar 11:18:56 11:22:15 16° 309° (NW) 11:25:36 145.827
FO-29 28 Mar 11:21:08 11:29:00 77° 257° (WSW) 11:36:28 435.910
DUCHIFAT 1 28 Mar 11:24:23 11:26:23 13° 67° (ENE) 11:28:23 145.980
RS-15 28 Mar 11:26:41 11:35:57 28° 102° (ESE) 11:45:27 29.354- 29.394
DELFI C3 28 Mar 11:38:52 11:42:18 28° 287° (WNW) 11:45:43 145.870
ESTCUBE 1 28 Mar 11:59:28 12:03:02 23° 96° (E) 12:06:35 437.505/2401.250
TIGRISAT 28 Mar 12:01:06 12:03:32 14° 267° (W) 12:05:59 435.000
NANOSAT C BR1 28 Mar 12:09:06 12:13:14 51° 75° (ENE) 12:17:23 145.865
EO-79 28 Mar 12:14:51 12:19:05 68° 76° (ENE) 12:23:20 145.935-145.965
AIST 2D 28 Mar 12:15:52 12:19:20 52° 261° (W) 12:22:47 435.315
LO-87 28 Mar 12:37:06 12:40:36 47° 285° (WNW) 12:44:06 145.935 - 145.965
POLYITAN 1 28 Mar 12:43:43 12:47:53 51° 260° (W) 12:52:04 437.675
JUGNU 28 Mar 12:45:41 12:47:07 11° 197° (SSW) 12:48:32 437.505
QB50P2 28 Mar 12:48:36 12:52:38 40° 261° (W) 12:56:42 145.880/145.840
Oscar 19 28 Mar 12:54:37 12:57:42 16° 66° (ENE) 13:00:46 437.125/150
DUCHIFAT 1 28 Mar 12:57:36 13:01:38 42° 261° (W) 13:05:41 145.980
SRMSAT 28 Mar 13:01:07 13:05:31 21° 185° (S) 13:09:55 437.500
VELOX 1 28 Mar 13:02:52 13:06:55 33° 98° (E) 13:10:57 145.980
BUGSAT 1 28 Mar 13:05:10 13:09:21 69° 77° (ENE) 13:13:35 437.445
FO-29 28 Mar 13:12:47 13:14:39 11° 270° (W) 13:16:31 435.910
50 SAT 28 Mar 13:22:48 13:26:00 32° 98° (E) 13:29:11 437.505
Gurwin Techsat 1B 28 Mar 13:24:41 13:28:17 19° 66° (ENE) 13:31:54 435.225
NO-84 28 Mar 13:30:48 13:32:31 14° 39° (NE) 13:34:17 435.350 FM
SPROUT 28 Mar 13:31:34 13:35:50 67° 101° (E) 13:40:03 437.525
RS-15 28 Mar 13:35:21 13:47:14 73° 300° (WNW) 13:59:38 29.354- 29.394
ESTCUBE 1 28 Mar 13:35:58 13:39:44 26° 289° (WNW) 13:43:30 437.505/2401.250
SO-50 28 Mar 13:57:46 14:01:40 26° 111° (ESE) 14:05:31 436.795
DX 1 28 Mar 14:09:01 14:13:26 79° 104° (ESE) 14:17:48 434.975-435.025
Oscar 19 28 Mar 14:31:37 14:36:32 49° 260° (W) 14:41:31 437.125/150
VELOX 1 28 Mar 14:40:04 14:43:04 18° 292° (WNW) 14:46:05 145.980
UKube-1 28 Mar 14:44:58 14:49:13 55° 285° (WNW) 14:53:26 .
ITAMSAT 1 28 Mar 14:45:42 14:49:07 18° 66° (ENE) 14:52:32 435.822/435.867
SRMSAT 28 Mar 14:51:09 14:54:02 14° 195° (SSW) 14:56:54 437.500
AO-7 28 Mar 14:52:18 14:59:13 30° 61° (ENE) 15:06:06 .
50 SAT 28 Mar 14:57:45 14:58:41 11° 292° (WNW) 14:59:36 437.505
Gurwin Techsat 1B 28 Mar 15:02:46 15:07:49 45° 260° (W) 15:12:56 435.225
NO-84 28 Mar 15:06:59 15:10:11 45° 231° (SW) 15:13:39 435.350 FM
SO-50 28 Mar 15:38:02 15:42:00 27° 306° (NW) 15:45:57 436.795
BEESAT 28 Mar 15:38:45 15:43:04 34° 98° (E) 15:47:21 436.000
MOZHAYETS 4 28 Mar 15:38:46 15:40:37 12° 93° (E) 15:42:27
RS-15 28 Mar 15:53:39 16:02:23 22° 326° (NW) 16:11:17 29.354- 29.394
ITUPSAT 1 28 Mar 15:56:12 16:00:50 52° 100° (E) 16:05:28 437.325
ITAMSAT 1 28 Mar 16:23:08 16:28:09 47° 260° (W) 16:33:11 435.822/435.867
O/OREOS (USA 219) 28 Mar 16:31:25 16:35:31 35° 104° (ESE) 16:39:39 437.305
KKS-1 28 Mar 16:41:23 16:42:47 11° 93° (E) 16:44:11 437.445
AO-7 28 Mar 16:43:26 16:51:30 54° 257° (WSW) 16:59:36 .
MOZHAYETS 4 28 Mar 17:13:36 17:17:58 48° 286° (WNW) 17:22:21
BEESAT 28 Mar 17:17:09 17:20:34 20° 292° (WNW) 17:23:59 436.000
ITUPSAT 1 28 Mar 17:35:53 17:38:10 13° 295° (WNW) 17:40:27 437.325
YUBILEINY 28 Mar 17:46:33 17:50:45 14° 66° (ENE) 17:54:55 435.215
CUBESAT XI-V 28 Mar 18:11:32 18:16:11 76° 284° (WNW) 18:20:52 437.345
O/OREOS (USA 219) 28 Mar 18:11:56 18:15:00 18° 299° (WNW) 18:18:05 437.305
DOVE 4 28 Mar 18:14:13 18:18:38 45° 73° (ENE) 18:23:21 437.250
KKS-1 28 Mar 18:15:13 18:19:34 51° 286° (WNW) 18:23:52 437.445
RS-15 28 Mar 18:18:46 18:22:18 11° 4° (N) 18:25:49 29.354- 29.394
HO-68 28 Mar 18:24:09 18:27:16 13° 58° (ENE) 18:30:24 435.675
PCSat 28 Mar 18:25:58 18:30:07 22° 54° (NE) 18:34:14 145.827
XW-2F 28 Mar 18:27:47 18:31:21 40° 75° (ENE) 18:34:55 145.980 - 146.000
CUTE-I 28 Mar 18:28:48 18:33:55 47° 73° (ENE) 18:39:04 437.470
LilacSat-2 28 Mar 18:33:09 18:36:54 54° 76° (ENE) 18:40:37 437.200
STARS 28 Mar 18:44:59 18:49:18 55° 286° (WNW) 18:53:35 437.465
NUDT-PHONESAT 28 Mar 18:46:15 18:49:56 60° 76° (ENE) 18:53:37 437.300
XW-2D 28 Mar 18:54:58 18:58:46 74° 259° (W) 19:02:34 145.860 - 145.880
KAITUO 1B 28 Mar 18:56:26 19:00:11 86° 78° (ENE) 19:03:56 145.475/437.950
XW-2B 28 Mar 19:01:00 19:04:47 63° 260° (W) 19:08:33 145.730 - 145.750
XW-2C 28 Mar 19:11:27 19:15:05 43° 261° (W) 19:18:44 145.795 - 145.815
Tancredo 1 28 Mar 19:20:15 19:22:57 27° 130° (SE) 19:25:40 437.200
ISS 28 Mar 19:30:39 19:33:34 31° 131° (SE) 19:36:29 437.550
YUBILEINY 28 Mar 19:39:56 19:48:41 87° 84° (E) 19:57:26 435.215
AO-85 28 Mar 19:40:28 19:43:07 15° 110° (ESE) 19:45:40 145.980
AAUSAT CUBESAT 2 28 Mar 19:49:12 19:50:51 12° 68° (ENE) 19:52:30 437.432
UWE-3 28 Mar 19:51:06 19:53:21 13° 67° (ENE) 19:55:34 435.000/436.395/437.385
DOVE 4 28 Mar 19:54:00 19:56:34 15° 269° (W) 19:59:14 437.250
M-CUBED/EXP-1 PRIME 28 Mar 19:54:04 19:58:47 89° 262° (W) 20:03:23 437.505
XW-2A 28 Mar 19:54:46 19:58:12 72° 77° (ENE) 20:01:39 145.665 - 145.685
STRAND 1 28 Mar 19:59:39 20:04:01 28° 97° (E) 20:08:21 437.568
HO-68 28 Mar 20:06:46 20:13:55 85° 75° (ENE) 20:21:06 435.675
PCSat 28 Mar 20:08:32 20:13:40 44° 250° (WSW) 20:18:47 145.827
SEEDS 28 Mar 20:09:12 20:13:13 49° 75° (ENE) 20:17:14 437.485
CUTE-I 28 Mar 20:10:37 20:14:08 18° 266° (W) 20:17:39 437.470
CUTE 1.7 + AOD 2 28 Mar 20:20:27 20:24:38 71° 258° (WSW) 20:28:49 437.475
ZACube-1 28 Mar 20:25:32 20:28:38 18° 69° (ENE) 20:31:43 437.345
CUBEBUG 2 28 Mar 20:27:02 20:31:41 58° 75° (ENE) 20:36:20 437.445
RS-15 28 Mar 20:31:37 20:41:28 27° 39° (NE) 20:50:59 29.354- 29.394
AO-73 28 Mar 20:51:27 20:55:29 32° 73° (ENE) 20:59:28 145.935
Tancredo 1 28 Mar 20:56:35 20:59:03 21° 325° (NW) 21:01:32 437.200
ISS 28 Mar 21:07:35 21:10:04 20° 326° (NW) 21:12:33 437.550
AO-85 28 Mar 21:18:59 21:23:14 40° 301° (WNW) 21:27:13 145.980
AAUSAT CUBESAT 2 28 Mar 21:22:01 21:25:53 41° 261° (W) 21:29:47 437.432
UWE-3 28 Mar 21:24:48 21:29:19 50° 261° (W) 21:33:49 435.000/436.395/437.385
STRAND 1 28 Mar 21:38:49 21:43:03 27° 291° (WNW) 21:47:16 437.568
YUBILEINY 28 Mar 21:40:01 21:44:13 15° 281° (W) 21:48:27 435.215
Oscar 11 28 Mar 21:48:18 21:52:34 61° 259° (W) 21:56:50 .
